Terminal Aerodrome Forecast
Issued by NWS Wilmington, OH

Current Version | Previous Version | Graphics & Text | Print | Product List | Glossary On
Versions: 1 2 3 4 5 6 7 8 9 10 11 12 13 14 15 16 17 18 19
000
FTUS41 KILN 271800 AAA
TAFILN
TAF AMD
KILN 271836Z 2719/2818 03009KT P6SM SCT018 BKN120
      TEMPO 2719/2721 BKN018
     FM272100 36007KT P6SM SCT120
     FM280000 34005KT P6SM SCT150
     FM280600 VRB03KT P6SM SCT250
     FM281300 14005KT P6SM BKN250=

USA.gov is the U.S. government's official web portal to all federal, state and local government web resources and services.